Indianapolis Mount Comfort, IN

12:49 AM EST on December 12, 2019 (GMT -0500)
Mount Comfort

Weather History for KMQJ - June, 2019

Change the Weather History Date:

Saturday, June 1, 2019

  Actual Average (KEYE) Record (KEYE)
Temperature  
Mean Temperature 70 °F -  
Max Temperature 82 °F 71 °F 88 °F (2018)
Min Temperature 59 °F 55 °F 39 °F (2003)
Cooling Degree Days 6    
Growing Degree Days 20 (Base 50)    
Moisture  
Dew Point 65 °F    
Average Humidity 82    
Maximum Humidity 100    
Minimum Humidity 58    
Precipitation  
Precipitation 0.00 in - - ()
Sea Level Pressure  
Sea Level Pressure 29.87 in    
Wind  
Wind Speed 6 mph (SW)    
Max Wind Speed 17 mph    
Max Gust Speed 22 mph    
Visibility 10 miles    
Events      
Averages and records for this station are not official NWS values.
T = Trace of Precipitation, MM = Missing Value Source: NWS Daily Summary

Daily Weather History Graph

Daily Weather History Graph

Search for Another Location

Airport or City:

Astronomy

Jun. 01, 2019 Rise Set
Actual Time 6:17 AM EDT 9:05 PM EDT
Civil Twilight 5:45 AM EDT 9:37 PM EDT
Nautical Twilight 5:05 AM EDT 10:18 PM EDT
Astronomical Twilight 4:19 AM EDT 11:04 PM EDT
Moon 5:21 AM EDT (6/1) 7:18 PM EDT (6/1)
Length of Visible Light 15h 52m
Length of Day
14h 48m
Waning Crescent, 4% of the Moon is Illuminated
Jun 1
Waning Crescent
Jun 3
New
Jun 10
First Quarter
Jun 17
Full
Jun 25
Last Quarter

Hourly Weather History & Observations

Time (EDT) Temp. Heat Index Dew Point Humidity Pressure Visibility Wind Dir Wind Speed Gust Speed Precip Events Conditions
12:02 AM 64.4 °F - 62.6 °F 94% 29.91 in 10.0 mi WSW 4.6 mph - N/A   Clear
12:22 AM 64.4 °F - 64.4 °F 100% 29.91 in 10.0 mi Calm Calm - N/A   Clear
12:44 AM 64.4 °F - 62.6 °F 94% 29.91 in 10.0 mi WSW 3.5 mph - N/A   Clear
1:03 AM 64.4 °F - 64.4 °F 100% 29.91 in 10.0 mi SW 3.5 mph - N/A   Clear
1:22 AM 62.6 °F - 62.6 °F 100% 29.91 in 10.0 mi Calm Calm - N/A   Clear
1:43 AM 62.6 °F - 62.6 °F 100% 29.91 in 10.0 mi SW 3.5 mph - N/A   Clear
2:03 AM 62.6 °F - 62.6 °F 100% 29.91 in 10.0 mi SW 5.8 mph - N/A   Clear
2:24 AM 62.6 °F - 62.6 °F 100% 29.90 in 10.0 mi SW 3.5 mph - N/A   Clear
2:43 AM 62.6 °F - 62.6 °F 100% 29.89 in 10.0 mi WSW 4.6 mph - N/A   Clear
3:02 AM 62.6 °F - 62.6 °F 100% 29.89 in 10.0 mi WSW 6.9 mph - N/A   Clear
3:23 AM 60.8 °F - 60.8 °F 100% 29.89 in 10.0 mi WSW 4.6 mph - N/A   Clear
3:42 AM 60.8 °F - 60.8 °F 100% 29.89 in 10.0 mi West 3.5 mph - N/A   Clear
4:04 AM 60.8 °F - 60.8 °F 100% 29.89 in 10.0 mi WSW 3.5 mph - N/A   Clear
4:26 AM 60.8 °F - 60.8 °F 100% 29.89 in 10.0 mi SW 4.6 mph - N/A   Clear
4:42 AM 60.8 °F - 60.8 °F 100% 29.89 in 10.0 mi WSW 3.5 mph - N/A   Clear
5:02 AM 62.6 °F - 62.6 °F 100% 29.89 in 10.0 mi Calm Calm - N/A   Clear
5:25 AM 60.8 °F - 60.8 °F 100% 29.89 in 10.0 mi Calm Calm - N/A   Clear
5:42 AM 59.0 °F - 59.0 °F 100% 29.89 in 10.0 mi Calm Calm - N/A   Clear
6:03 AM 59.0 °F - 59.0 °F 100% 29.90 in 10.0 mi Calm Calm - N/A   Clear
6:24 AM 59.0 °F - 59.0 °F 100% 29.90 in 7.0 mi South 3.5 mph - N/A   Clear
6:43 AM 59.0 °F - 59.0 °F 100% 29.91 in 7.0 mi South 4.6 mph - N/A   Clear
7:02 AM 60.8 °F - 60.8 °F 100% 29.92 in 7.0 mi South 3.5 mph - N/A   Clear
7:24 AM 60.8 °F - 60.8 °F 100% 29.92 in 10.0 mi South 5.8 mph - N/A   Clear
7:43 AM 60.8 °F - 60.8 °F 100% 29.92 in 10.0 mi South 4.6 mph - N/A   Clear
8:04 AM 62.6 °F - 62.6 °F 100% 29.92 in 10.0 mi South 4.6 mph - N/A   Clear
8:22 AM 62.6 °F - 62.6 °F 100% 29.92 in 10.0 mi South 3.5 mph - N/A   Clear
8:47 AM 66.2 °F - 66.2 °F 100% 29.92 in 10.0 mi SW 6.9 mph - N/A   Clear
9:04 AM 68.0 °F - 66.2 °F 94% 29.92 in 10.0 mi SW 6.9 mph - N/A   Clear
9:24 AM 69.8 °F - 68.0 °F 94% 29.92 in 10.0 mi West 8.1 mph - N/A   Clear
9:45 AM 71.6 °F - 66.2 °F 83% 29.92 in 10.0 mi SW 5.8 mph - N/A   Clear
10:05 AM 71.6 °F - 68.0 °F 88% 29.91 in 10.0 mi SSW 8.1 mph - N/A   Clear
10:28 AM 73.4 °F - 68.0 °F 83% 29.92 in 10.0 mi WSW 8.1 mph - N/A   Clear
10:44 AM 75.2 °F - 66.2 °F 73% 29.91 in 10.0 mi WSW 6.9 mph - N/A   Clear
11:03 AM 75.2 °F - 66.2 °F 73% 29.91 in 10.0 mi WSW 9.2 mph - N/A   Clear
11:24 AM 75.2 °F - 66.2 °F 73% 29.90 in 10.0 mi SW 9.2 mph - N/A   Clear
11:43 AM 75.2 °F - 66.2 °F 73% 29.90 in 10.0 mi SW 13.8 mph - N/A   Clear
12:04 PM 77.0 °F - 66.2 °F 69% 29.90 in 10.0 mi WSW 12.7 mph - N/A   Clear
12:22 PM 77.0 °F - 66.2 °F 69% 29.90 in 10.0 mi West 10.4 mph - N/A   Clear
12:42 PM 78.8 °F - 64.4 °F 61% 29.89 in 10.0 mi WSW 10.4 mph - N/A   Clear
1:04 PM 78.8 °F - 66.2 °F 65% 29.89 in 10.0 mi WSW 11.5 mph - N/A   Clear
1:26 PM 78.8 °F - 66.2 °F 65% 29.88 in 10.0 mi WSW 8.1 mph 16.1 mph N/A   Clear
1:43 PM 80.6 °F 83.2 °F 68.0 °F 65% 29.88 in 10.0 mi SW 9.2 mph - N/A   Clear
2:02 PM 80.6 °F 83.2 °F 68.0 °F 65% 29.87 in 10.0 mi WSW 11.5 mph - N/A   Clear
2:22 PM 80.6 °F 82.7 °F 66.2 °F 61% 29.87 in 10.0 mi West 12.7 mph 18.4 mph N/A   Clear
2:43 PM 80.6 °F 83.2 °F 68.0 °F 65% 29.86 in 10.0 mi West 11.5 mph - N/A   Clear
3:03 PM 80.6 °F 82.7 °F 66.2 °F 61% 29.85 in 10.0 mi SW 12.7 mph - N/A   Clear
3:22 PM 82.4 °F 85.4 °F 68.0 °F 62% 29.85 in 10.0 mi SW 12.7 mph - N/A   Clear
3:42 PM 82.4 °F 84.6 °F 66.2 °F 58% 29.85 in 10.0 mi WSW 13.8 mph - N/A   Scattered Clouds
4:03 PM 80.6 °F 82.7 °F 66.2 °F 61% 29.84 in 10.0 mi WSW 11.5 mph 17.3 mph N/A   Scattered Clouds
4:24 PM 82.4 °F 85.4 °F 68.0 °F 62% 29.84 in 10.0 mi West 15.0 mph 21.9 mph N/A   Scattered Clouds
4:42 PM 80.6 °F 82.7 °F 66.2 °F 61% 29.84 in 10.0 mi WSW 15.0 mph - N/A   Scattered Clouds
5:03 PM 80.6 °F 82.7 °F 66.2 °F 61% 29.83 in 10.0 mi West 15.0 mph 18.4 mph N/A   Clear
5:22 PM 80.6 °F 82.7 °F 66.2 °F 61% 29.83 in 10.0 mi SW 13.8 mph 20.7 mph N/A   Clear
5:42 PM 80.6 °F 82.7 °F 66.2 °F 61% 29.82 in 10.0 mi SW 13.8 mph 17.3 mph N/A   Clear
6:02 PM 80.6 °F 82.7 °F 66.2 °F 61% 29.82 in 10.0 mi SW 13.8 mph - N/A   Clear
6:22 PM 80.6 °F 83.2 °F 68.0 °F 65% 29.81 in 10.0 mi SW 11.5 mph 17.3 mph N/A   Clear
6:43 PM 78.8 °F - 66.2 °F 65% 29.80 in 10.0 mi SW 13.8 mph 19.6 mph N/A   Clear
7:03 PM 77.0 °F - 66.2 °F 69% 29.80 in 10.0 mi WSW 17.3 mph - N/A   Clear
7:24 PM 77.0 °F - 66.2 °F 69% 29.80 in 10.0 mi SW 12.7 mph 16.1 mph N/A   Clear
7:42 PM 77.0 °F - 66.2 °F 69% 29.79 in 10.0 mi SW 12.7 mph - N/A   Clear
8:02 PM 77.0 °F - 66.2 °F 69% 29.79 in 10.0 mi SW 10.4 mph 19.6 mph N/A   Clear
8:22 PM 77.0 °F - 66.2 °F 69% 29.80 in 10.0 mi SW 12.7 mph - N/A   Clear
8:42 PM 75.2 °F - 66.2 °F 73% 29.80 in 10.0 mi SSW 9.2 mph - N/A   Clear
9:02 PM 73.4 °F - 66.2 °F 78% 29.80 in 10.0 mi SW 9.2 mph - N/A   Clear
9:22 PM 73.4 °F - 66.2 °F 78% 29.80 in 10.0 mi SW 8.1 mph - N/A   Clear
9:42 PM 73.4 °F - 66.2 °F 78% 29.81 in 10.0 mi SSW 6.9 mph - N/A   Clear
10:03 PM 73.4 °F - 66.2 °F 78% 29.81 in 10.0 mi SSW 6.9 mph - N/A   Scattered Clouds
10:22 PM 73.4 °F - 66.2 °F 78% 29.81 in 10.0 mi SW 8.1 mph - N/A   Clear
10:43 PM 71.6 °F - 66.2 °F 83% 29.81 in 10.0 mi SSW 8.1 mph - N/A   Clear
11:03 PM 71.6 °F - 66.2 °F 83% 29.80 in 10.0 mi SSW 6.9 mph - N/A   Clear
11:23 PM 71.6 °F - 66.2 °F 83% 29.79 in 10.0 mi SSW 6.9 mph - N/A   Clear
11:43 PM 69.8 °F - 66.2 °F 88% 29.79 in 10.0 mi SW 8.1 mph - N/A   Clear